Location: Lake Lucerne
(45.5315°N, 88.8489°W)
Time: 17:34:59
(UTC-05:00)

Envisat - Visible Passes

Search period start: 24 June 2017 00:00
Search period end: 04 July 2017 00:00
Orbit: 764 x 766 km, 98.2° (Epoch: 23 June)

Date Brightness Start Highest point End Pass type
(mag) Time Alt. Az. Time Alt. Az. Time Alt. Az.
24 Jun 4.9 21:47:00 10° SSW 21:51:17 27° W 21:55:35 10° NW visible
26 Jun 5.5 22:14:04 10° SW 22:17:10 16° W 22:20:17 10° NW visible
27 Jun 4.6 21:35:32 10° SSW 21:40:07 34° W 21:44:44 10° NNW visible
29 Jun 5.3 22:02:16 10° SW 22:05:58 20° W 22:09:41 10° NW visible
30 Jun 4.2 21:24:11 10° SSW 21:28:58 42° W 21:33:48 10° NNW visible
01 Jul 5.7 22:30:14 10° WSW 22:31:55 11° W 22:33:37 10° WNW visible
02 Jul 5.0 21:50:38 10° SSW 21:54:47 25° W 21:58:57 10° NW visible
03 Jul 3.8 21:12:53 10° S 21:17:51 52° W 21:22:49 10° NNW visible
